Regional Weather Roundup
Issued by NWS Charleston, WV

Home | Current Version | Previous Version | Text Only | Print | Product List | Glossary Off
Versions: 1 2 3 4 5 6 7 8 9 10 11 12 13 14 15 16 17 18 19 20 21 22 23 24 25 26 27 28 29 30 31 32 33 34 35 36 37 38 39 40 41 42 43 44 45 46 47 48 49 50

000
ASUS41 KRLX 180610
RWRRLX
West Virginia Regional Weather Roundup
National Weather Service Charleston WV
200 AM EDT SAT APR 18 2015

Note: "fair" indicates few or no clouds below 12,000 feet with no
significant weather and/or obstructions to visibility.

WVZ003-180700-
Northern Panhandle of West Virginia

CITY           SKY/WX    TMP DP  RH WIND       PRES   REMARKS
WHEELING         N/A     56  46  69 CALM      30.04F
$$

WVZ009-180700-
Northwest West Virginia

CITY           SKY/WX    TMP DP  RH WIND       PRES   REMARKS
PARKERSBURG      N/A     54  49  83 CALM      30.05F
$$

WVZ006-180700-
Western West Virginia

CITY           SKY/WX    TMP DP  RH WIND       PRES   REMARKS
HUNTINGTON       N/A     61  49  64 E3        30.00F
$$

WVZ015-180700-
West Central West Virginia

CITY           SKY/WX    TMP DP  RH WIND       PRES   REMARKS
CHARLESTON       N/A     59  54  83 CALM      30.01F
$$

WVZ022-031-180700-
North Central West Virginia

CITY           SKY/WX    TMP DP  RH WIND       PRES   REMARKS
CLARKSBURG     FOG       51  51 100 CALM      30.04F VSB 1/2
MORGANTOWN       N/A     55  52  89 CALM      30.06F FOG
$$

WVZ025-035-042-045-180700-
Southern West Virginia

CITY           SKY/WX    TMP DP  RH WIND       PRES   REMARKS
BECKLEY          N/A     54  50  86 E3        30.06F
LOGAN            N/A     63  55  77 CALM      30.00F
BLUEFIELD      MOCLDY    62  50  64 CALM      30.08F
LEWISBURG        N/A     55  50  83 CALM      30.06F
$$

WVZ047-180700-
Northern Mountains of West Virginia

CITY           SKY/WX    TMP DP  RH WIND       PRES   REMARKS
ELKINS         FOG       47  46  97 CALM      30.07F VSB 3/4
$$

WVZ052-180700-
Eastern Panhandle of West Virginia

CITY           SKY/WX    TMP DP  RH WIND       PRES   REMARKS
MARTINSBURG      N/A     54  50  86 CALM      30.02F
PETERSBURG       N/A     51  47  87 CALM      30.06F FOG
$$



USA.gov is the U.S. government's official web portal to all federal, state and local government web resources and services.